STARLINK-32743

Last updated on Fri Jan 31 2025 00:02:04 GMT+0000 (Coordinated Universal Time)

1 62480U 24254U 25030.58334491 -.01522806 00000+0 -34701-1 0 9995 2 62480 43.0004 136.9496 0001264 279.5201 177.6543 15.45190546 6032
UTC large
Height (km)
Speed (km/s)
/
Latitude / Longitude
Inclination (degrees)
Orbital Period (minutes)
Azimuth
Elevation
Range (km)
Doppler Factor

Next 0 passes for location: London (51.5072 / 0.1276)

Sorry there are no passes over London.